When you browse on this site, cookies collect data to enhance your experience and personalize the content and advertising you see.
Visit our Privacy Policy to learn more. By continuing to use the site, you agree to this use of cookies and data.
EN

Hourly Weather Rio de Janeiro

Today, 12 August, Wednesday

Time Temperature Precipitation Wind Pressure Humidity
00:00 +24°C° 0 mm 2 mps 760 mmHg 52%
01:00 +24°C° 0 mm 2 mps 760 mmHg 53%
02:00 +23°C° 0 mm 2 mps 759 mmHg 54%
03:00 +23°C° 0 mm 2 mps 759 mmHg 55%
04:00 +23°C° 0 mm 2 mps 759 mmHg 58%
05:00 +23°C° 0 mm 1 mps 759 mmHg 60%
06:00 +22°C° 0 mm 1 mps 760 mmHg 62%
07:00 +24°C° 0 mm 2 mps 760 mmHg 60%
08:00 +25°C° 0 mm 2 mps 760 mmHg 57%
09:00 +27°C° 0 mm 2 mps 761 mmHg 54%
10:00 +28°C° 0 mm 2 mps 760 mmHg 50%
11:00 +30°C° 0 mm 2 mps 760 mmHg 46%
12:00 +32°C° 0 mm 2 mps 760 mmHg 41%
13:00 +31°C° 0 mm 3 mps 759 mmHg 43%
14:00 +31°C° 0 mm 3 mps 758 mmHg 45%
15:00 +31°C° 0 mm 3 mps 758 mmHg 47%
16:00 +29°C° 0 mm 3 mps 758 mmHg 54%
17:00 +27°C° 0 mm 3 mps 758 mmHg 61%
18:00 +25°C° 0 mm 2 mps 758 mmHg 69%
19:00 +25°C° 0 mm 2 mps 759 mmHg 70%
20:00 +25°C° 0 mm 2 mps 759 mmHg 71%
21:00 +24°C° 0 mm 1 mps 759 mmHg 71%
22:00 +24°C° 0 mm 1 mps 759 mmHg 72%
23:00 +24°C° 0 mm 1 mps 759 mmHg 72%

Tomorrow, 13 August, Thursday

Time Temperature Precipitation Wind Pressure Humidity
00:00 +23°C° 0 mm 1 mps 759 mmHg 72%
01:00 +23°C° 0 mm 1 mps 758 mmHg 71%
02:00 +23°C° 0 mm 1 mps 758 mmHg 70%
03:00 +23°C° 0 mm 2 mps 758 mmHg 69%
04:00 +23°C° 0 mm 2 mps 758 mmHg 70%
05:00 +23°C° 0 mm 2 mps 758 mmHg 70%
06:00 +23°C° 0 mm 2 mps 758 mmHg 70%
07:00 +25°C° 0 mm 2 mps 758 mmHg 63%
08:00 +27°C° 0 mm 2 mps 759 mmHg 57%
09:00 +28°C° 0 mm 2 mps 759 mmHg 50%
10:00 +30°C° 0 mm 2 mps 759 mmHg 45%
11:00 +32°C° 0 mm 2 mps 758 mmHg 40%
12:00 +35°C° 0 mm 3 mps 758 mmHg 34%
13:00 +35°C° 0 mm 3 mps 757 mmHg 34%
14:00 +35°C° 0 mm 3 mps 757 mmHg 34%
15:00 +36°C° 0 mm 3 mps 756 mmHg 33%
16:00 +34°C° 0 mm 3 mps 756 mmHg 38%
17:00 +31°C° 0 mm 3 mps 756 mmHg 43%
18:00 +29°C° 0 mm 3 mps 757 mmHg 48%
19:00 +29°C° 0 mm 3 mps 757 mmHg 50%
20:00 +28°C° 0 mm 2 mps 757 mmHg 52%
21:00 +27°C° 0 mm 2 mps 758 mmHg 54%
22:00 +26°C° 0 mm 2 mps 758 mmHg 55%
23:00 +26°C° 0 mm 2 mps 757 mmHg 55%

Day after tomorrow, 14 August, Friday

Time Temperature Precipitation Wind Pressure Humidity
00:00 +26°C° 0 mm 2 mps 757 mmHg 56%
01:00 +25°C° 0 mm 2 mps 757 mmHg 56%
02:00 +25°C° 0 mm 2 mps 757 mmHg 57%
03:00 +24°C° 0 mm 2 mps 756 mmHg 57%
04:00 +24°C° 0 mm 2 mps 756 mmHg 58%
05:00 +24°C° 0 mm 2 mps 756 mmHg 59%
06:00 +23°C° 0 mm 2 mps 757 mmHg 60%
07:00 +25°C° 0 mm 2 mps 757 mmHg 56%
08:00 +27°C° 0 mm 2 mps 757 mmHg 52%
09:00 +29°C° 0 mm 2 mps 758 mmHg 48%
10:00 +31°C° 0 mm 2 mps 757 mmHg 43%
11:00 +34°C° 0 mm 2 mps 757 mmHg 38%
12:00 +35°C° 0 mm 1 mps 757 mmHg 33%
13:00 +36°C° 0 mm 2 mps 756 mmHg 33%
14:00 +36°C° 0 mm 2 mps 756 mmHg 33%
15:00 +36°C° 0 mm 3 mps 755 mmHg 33%
16:00 +34°C° 0 mm 2 mps 755 mmHg 40%
17:00 +31°C° 0 mm 2 mps 756 mmHg 47%
18:00 +29°C° 0 mm 2 mps 756 mmHg 54%
19:00 +28°C° 0 mm 2 mps 756 mmHg 56%
20:00 +27°C° 0 mm 2 mps 757 mmHg 59%
21:00 +26°C° 0 mm 2 mps 757 mmHg 61%
22:00 +26°C° 0 mm 2 mps 757 mmHg 62%
23:00 +26°C° 0 mm 3 mps 758 mmHg 63%

15 August, Saturday

Time Temperature Precipitation Wind Pressure Humidity
00:00 +25°C° 0 mm 3 mps 758 mmHg 65%
01:00 +25°C° 0 mm 3 mps 757 mmHg 68%
02:00 +24°C° 0 mm 2 mps 757 mmHg 72%
03:00 +24°C° 0 mm 1 mps 756 mmHg 76%
04:00 +24°C° 0 mm 2 mps 756 mmHg 72%
05:00 +24°C° 0 mm 2 mps 756 mmHg 67%
06:00 +23°C° 0 mm 2 mps 756 mmHg 63%
07:00 +25°C° 0 mm 3 mps 756 mmHg 57%
08:00 +27°C° 0 mm 3 mps 756 mmHg 52%
09:00 +29°C° 0 mm 3 mps 756 mmHg 46%
10:00 +30°C° 0 mm 3 mps 756 mmHg 42%
11:00 +33°C° 0 mm 3 mps 755 mmHg 37%
12:00 +35°C° 0 mm 2 mps 755 mmHg 32%
13:00 +35°C° 0 mm 3 mps 755 mmHg 34%
14:00 +35°C° 0 mm 3 mps 754 mmHg 35%
15:00 +35°C° 0 mm 3 mps 754 mmHg 36%
16:00 +33°C° 0 mm 4 mps 754 mmHg 46%
17:00 +29°C° 0 mm 4 mps 755 mmHg 55%
18:00 +27°C° 0 mm 4 mps 755 mmHg 65%
19:00 +26°C° 0 mm 4 mps 756 mmHg 68%
20:00 +26°C° 0 mm 3 mps 756 mmHg 72%
21:00 +25°C° 0 mm 3 mps 757 mmHg 75%
22:00 +25°C° 0 mm 2 mps 756 mmHg 76%
23:00 +24°C° 0 mm 2 mps 756 mmHg 78%

16 August, Sunday

Time Temperature Precipitation Wind Pressure Humidity
00:00 +24°C° 0 mm 2 mps 756 mmHg 79%
01:00 +24°C° 0 mm 1 mps 756 mmHg 80%
02:00 +24°C° 0 mm 1 mps 756 mmHg 80%
03:00 +23°C° 0 mm 1 mps 755 mmHg 81%
04:00 +23°C° 0 mm 1 mps 756 mmHg 80%
05:00 +23°C° 0 mm 2 mps 756 mmHg 80%
06:00 +22°C° 0 mm 3 mps 757 mmHg 80%
07:00 +24°C° 0.2 mm 3 mps 758 mmHg 78%
08:00 +25°C° 0.2 mm 2 mps 758 mmHg 76%
09:00 +26°C° 0.2 mm 2 mps 759 mmHg 74%
10:00 +26°C° 0.2 mm 2 mps 758 mmHg 72%
11:00 +26°C° 0.2 mm 1 mps 758 mmHg 71%
12:00 +27°C° 0.2 mm 1 mps 758 mmHg 69%
13:00 +27°C° 0 mm 2 mps 757 mmHg 66%
14:00 +28°C° 0 mm 2 mps 756 mmHg 62%
15:00 +29°C° 0 mm 2 mps 755 mmHg 59%
16:00 +28°C° 0 mm 3 mps 756 mmHg 62%
17:00 +27°C° 0 mm 3 mps 756 mmHg 65%
18:00 +26°C° 0 mm 3 mps 756 mmHg 68%
19:00 +26°C° 0 mm 3 mps 756 mmHg 71%
20:00 +25°C° 0 mm 3 mps 757 mmHg 73%
21:00 +25°C° 0 mm 3 mps 757 mmHg 76%
22:00 +25°C° 0.6 mm 2 mps 757 mmHg 78%
23:00 +24°C° 0.6 mm 2 mps 757 mmHg 80%

17 August, Monday

Time Temperature Precipitation Wind Pressure Humidity
00:00 +24°C° 0.6 mm 1 mps 757 mmHg 82%
01:00 +24°C° 0.3 mm 1 mps 757 mmHg 83%
02:00 +23°C° 0.3 mm 1 mps 756 mmHg 84%
03:00 +23°C° 0.3 mm 2 mps 756 mmHg 85%
04:00 +23°C° 0.2 mm 1 mps 756 mmHg 86%
05:00 +23°C° 0.2 mm 1 mps 756 mmHg 87%
06:00 +23°C° 0.2 mm 1 mps 757 mmHg 88%
07:00 +23°C° 1.8 mm 2 mps 757 mmHg 88%
08:00 +23°C° 1.8 mm 2 mps 757 mmHg 88%
09:00 +24°C° 1.8 mm 2 mps 758 mmHg 88%
10:00 +24°C° 2.3 mm 2 mps 758 mmHg 88%
11:00 +24°C° 2.3 mm 2 mps 758 mmHg 89%
12:00 +24°C° 2.3 mm 1 mps 758 mmHg 89%
13:00 +24°C° 0.2 mm 1 mps 757 mmHg 87%
14:00 +24°C° 0.2 mm 2 mps 757 mmHg 85%
15:00 +25°C° 0.2 mm 2 mps 756 mmHg 84%
16:00 +24°C° 0.7 mm 3 mps 756 mmHg 85%
17:00 +24°C° 0.7 mm 3 mps 757 mmHg 86%
18:00 +23°C° 0.7 mm 4 mps 757 mmHg 87%
19:00 +23°C° 0.4 mm 4 mps 757 mmHg 87%
20:00 +23°C° 0.4 mm 4 mps 757 mmHg 87%
21:00 +22°C° 0.4 mm 4 mps 757 mmHg 88%
22:00 +22°C° 0.7 mm 3 mps 757 mmHg 87%
23:00 +23°C° 0.7 mm 2 mps 757 mmHg 86%
Show more